Flag for U.S.A. Weather past 2 weeks in Springfield, Missouri, U.S.A.

Now
87 °F

Pleasantly warm.


Feels Like: 85 °F
Forecast: 68 / 87 °F
Wind: 9 mph from Northeast

Location: Springfield Regional Airport

Current Time: Jul 30, 2015 at 2:21:42 PM

Latest Report: Jul 30, 2015 at 1:53 PM


Visibility: 10 mi

Pressure: 30.16 "Hg

Humidity: 30%

Dew point: 52 °F

Location of SpringfieldLocation

Historic Weather in Springfield — Graph

°F

Springfield temperature yesterday

Maximum temperature yesterday: 94 °F (at 2:52 PM)
Minimum temperature yesterday: 75 °F (at 4:52 AM)
Average temperature yesterday: 83 °F

Past Weeks' High & Low Weather Summary

 TemperatureHumidityPressure
High94 °F (Jul 29, 2:52 PM)96% (Jul 23, 4:52 AM)30.18 "Hg (Jul 23, 4:52 AM)
Low69 °F (Jul 30, 6:52 AM)32% (Jul 30, 12:52 PM)29.80 "Hg (Jul 20, 4:52 PM)
Average82 °F73%29.92 "Hg
* Reported Jul 15 12:52 PM — Jul 30 12:52 PM, Springfield, Weather by CustomWeather, © 2015

Note: Actual official high and low records may vary slightly from our data, if they occured in-between our weather recording intervals... More about our weather records

Advertising

Springfield weather history for previous 24 hours

 ConditionsComfort  
Time TempWeatherWind HumidityBarometerVisibility
12:52 PM
Thu, Jul 30
86 °FSunny.10 mph32%30.17 "Hg10 mi
11:52 AM84 °FSunny.9 mph36%30.18 "Hg10 mi
10:52 AM81 °FSunny.8 mph47%30.18 "Hg10 mi
9:52 AM78 °FSunny.8 mph58%30.17 "Hg10 mi
8:52 AM75 °FPassing clouds.6 mph62%30.17 "Hg10 mi
7:52 AM74 °FSunny.5 mph69%30.15 "Hg10 mi
6:52 AM69 °FClear.No wind84%30.14 "Hg10 mi
5:52 AM70 °FClear.8 mph81%30.12 "Hg10 mi
4:52 AM72 °FClear.5 mph76%30.12 "Hg10 mi
3:52 AM72 °FClear.5 mph78%30.11 "Hg10 mi
2:52 AM73 °FClear.3 mph76%30.11 "Hg10 mi
1:52 AM74 °FClear.3 mph74%30.11 "Hg10 mi
12:52 AM75 °FClear.6 mph74%30.11 "Hg10 mi
11:52 PM
Wed, Jul 29
76 °FClear.5 mph77%30.11 "Hg10 mi
10:52 PM77 °FPassing clouds.7 mph77%30.10 "Hg10 mi
9:52 PM79 °FPassing clouds.7 mph72%30.09 "Hg10 mi
8:52 PM81 °FOvercast.9 mph67%30.07 "Hg10 mi
7:52 PM82 °FSunny.8 mph67%30.05 "Hg10 mi
6:52 PM86 °FSunny.10 mph61%30.04 "Hg10 mi
5:52 PM87 °FSunny.15 mph57%30.03 "Hg10 mi
4:52 PM87 °FSunny.16 mph61%30.03 "Hg10 mi
3:52 PM89 °FPartly sunny.18 mph63%30.03 "Hg10 mi
2:52 PM94 °FPassing clouds.9 mph46%30.03 "Hg10 mi
Weather by CustomWeather, © 2015

See weather overviewHow to use our weather pages